| time (UTC) | temp F | wind direction | speed knots | gust knots | rain 1hr in | rain 24hr in | rain mn in | humidity % | barometer mb |
| 20260509123802 | 51 | 312 | 4.3 | 7.8 | 0.00 | 0.00 | 0.00 | 73 | 1005.2 |
| 20260509123259 | 51 | 24 | 4.3 | 4.3 | 0.00 | 0.00 | 0.00 | 73 | 1005.0 |
| 20260509122754 | 52 | 303 | 1.7 | 2.6 | 0.00 | 0.00 | 0.00 | 73 | 1004.9 |
| 20260509122252 | 52 | 74 | 2.6 | 2.6 | 0.00 | 0.00 | 0.00 | 73 | 1004.8 |
| 20260509121748 | 52 | 3 | 5.2 | 7.8 | 0.00 | 0.00 | 0.00 | 72 | 1004.6 |
| 20260509121245 | 52 | 112 | 1.7 | 2.6 | 0.00 | 0.00 | 0.00 | 73 | 1004.7 |
| 20260509120744 | 52 | 107 | 5.2 | 6.1 | 0.00 | 0.00 | 0.00 | 73 | 1004.4 |
| 20260509120241 | 52 | 279 | 1.7 | 4.3 | 0.00 | 0.00 | 0.00 | 74 | 1004.5 |
| 20260509115739 | 53 | 339 | 4.3 | 6.1 | 0.00 | 0.00 | 0.00 | 74 | 1004.5 |
| 20260509115235 | 53 | 3 | 4.3 | 7.8 | 0.00 | 0.00 | 0.00 | 74 | 1004.3 |
| 20260509114734 | 53 | 28 | 3.5 | 4.3 | 0.00 | 0.00 | 0.00 | 73 | 1004.2 |
| 20260509114232 | 53 | 284 | 1.7 | 2.6 | 0.00 | 0.00 | 0.00 | 72 | 1004.2 |
| 20260509113731 | 52 | 171 | 4.3 | 6.1 | 0.00 | 0.00 | 0.00 | 73 | 1003.9 |
| 20260509113228 | 52 | 46 | 1.7 | 2.6 | 0.00 | 0.00 | 0.00 | 73 | 1004.0 |
| 20260509112724 | 52 | 154 | 0.0 | 0.0 | 0.00 | 0.00 | 0.00 | 73 | 1004.0 |
| 20260509112222 | 52 | 160 | 0.0 | 0.0 | 0.00 | 0.00 | 0.00 | 72 | 1003.6 |
| 20260509111718 | 52 | 160 | 0.0 | 0.0 | 0.00 | 0.00 | 0.00 | 72 | 1003.6 |
| 20260509111215 | 52 | 166 | 0.0 | 0.0 | 0.00 | 0.00 | 0.00 | 72 | 1003.7 |
| 20260509110713 | 52 | 172 | 0.0 | 0.0 | 0.00 | 0.00 | 0.00 | 72 | 1003.2 |
| 20260509110209 | 52 | 160 | 0.0 | 0.0 | 0.00 | 0.00 | 0.00 | 71 | 1003.2 |
| 20260509105708 | 52 | 172 | 0.9 | 1.7 | 0.00 | 0.00 | 0.00 | 72 | 1003.0 |
| 20260509105204 | 52 | 172 | 0.0 | 0.0 | 0.00 | 0.00 | 0.00 | 72 | 1003.1 |
| 20260509104702 | 52 | 136 | 0.0 | 0.0 | 0.00 | 0.00 | 0.00 | 71 | 1003.2 |
| 20260509104158 | 52 | 157 | 0.0 | 0.0 | 0.00 | 0.00 | 0.00 | 70 | 1002.9 |
| 20260509103656 | 53 | 144 | 0.0 | 0.0 | 0.00 | 0.00 | 0.00 | 69 | 1003.4 |
| 20260509103154 | 53 | 193 | 0.0 | 1.7 | 0.00 | 0.00 | 0.00 | 67 | 1003.3 |
| 20260509102652 | 53 | 201 | 0.9 | 1.7 | 0.00 | 0.00 | 0.00 | 65 | 1003.1 |
| 20260509102148 | 53 | 163 | 0.0 | 0.0 | 0.00 | 0.00 | 0.00 | 65 | 1003.0 |
| 20260509101644 | 53 | 181 | 0.0 | 1.7 | 0.00 | 0.00 | 0.00 | 65 | 1003.1 |
| 20260509101141 | 53 | 170 | 0.0 | 0.0 | 0.00 | 0.00 | 0.00 | 62 | 1002.8 |
| 20260509100639 | 53 | 167 | 0.0 | 0.0 | 0.00 | 0.00 | 0.00 | 60 | 1002.5 |
| 20260509100136 | 53 | 175 | 0.0 | 0.0 | 0.00 | 0.00 | 0.00 | 59 | 1002.9 |
| 20260509095632 | 53 | 172 | 0.0 | 1.7 | 0.00 | 0.00 | 0.00 | 59 | 1003.1 |
| 20260509095130 | 53 | 171 | 0.0 | 0.0 | 0.00 | 0.00 | 0.00 | 58 | 1003.2 |
| 20260509094626 | 53 | 177 | 0.0 | 0.0 | 0.00 | 0.00 | 0.00 | 57 | 1003.4 |
| 20260509094123 | 53 | 184 | 1.7 | 1.7 | 0.00 | 0.00 | 0.00 | 57 | 1003.4 |
| 20260509093622 | 53 | 202 | 0.0 | 1.7 | 0.00 | 0.00 | 0.00 | 57 | 1003.0 |
| 20260509093118 | 54 | 172 | 0.0 | 1.7 | 0.00 | 0.00 | 0.00 | 56 | 1003.4 |
| 20260509092616 | 54 | 152 | 0.0 | 0.0 | 0.00 | 0.00 | 0.00 | 56 | 1003.3 |
| 20260509092115 | 54 | 153 | 1.7 | 1.7 | 0.00 | 0.00 | 0.00 | 55 | 1003.5 |
| 20260509091612 | 54 | 217 | 1.7 | 2.6 | 0.00 | 0.00 | 0.00 | 54 | 1003.3 |
| 20260509091108 | 54 | 154 | 1.7 | 2.6 | 0.00 | 0.00 | 0.00 | 54 | 1003.1 |
| 20260509090606 | 54 | 17 | 5.2 | 7.8 | 0.00 | 0.00 | 0.00 | 53 | 1003.3 |
| 20260509085600 | 54 | 147 | 0.9 | 1.7 | 0.00 | 0.00 | 0.00 | 52 | 1003.2 |
| 20260509085055 | 54 | 181 | 0.0 | 0.0 | 0.00 | 0.00 | 0.00 | 52 | 1003.0 |
| 20260509084553 | 54 | 155 | 0.0 | 1.7 | 0.00 | 0.00 | 0.00 | 52 | 1003.0 |
| 20260509084050 | 54 | 169 | 1.7 | 1.7 | 0.00 | 0.00 | 0.00 | 51 | 1002.9 |
| 20260509083547 | 54 | 158 | 0.0 | 0.0 | 0.00 | 0.00 | 0.00 | 50 | 1002.8 |
| 20260509083044 | 54 | 202 | 3.5 | 4.3 | 0.00 | 0.00 | 0.00 | 50 | 1003.0 |
| 20260509082541 | 54 | 185 | 0.9 | 1.7 | 0.00 | 0.00 | 0.00 | 49 | 1002.6 |
| 20260509082038 | 54 | 170 | 1.7 | 2.6 | 0.00 | 0.00 | 0.00 | 48 | 1002.9 |
| 20260509081535 | 53 | 260 | 2.6 | 4.3 | 0.00 | 0.00 | 0.00 | 48 | 1002.9 |
| 20260509081032 | 52 | 309 | 1.7 | 2.6 | 0.00 | 0.00 | 0.00 | 51 | 1003.0 |
| 20260509080530 | 53 | 167 | 0.0 | 0.0 | 0.00 | 0.00 | 0.00 | 50 | 1002.1 |
| 20260509080028 | 52 | 169 | 0.0 | 0.0 | 0.00 | 0.00 | 0.00 | 49 | 1002.0 |
| 20260509075525 | 52 | 170 | 0.0 | 0.0 | 0.00 | 0.00 | 0.00 | 49 | 1002.1 |
| 20260509075023 | 52 | 171 | 0.0 | 0.0 | 0.00 | 0.00 | 0.00 | 49 | 1002.0 |
| 20260509074520 | 51 | 172 | 0.0 | 0.0 | 0.00 | 0.00 | 0.00 | 50 | 1002.1 |
| 20260509074016 | 51 | 168 | 0.0 | 0.0 | 0.00 | 0.00 | 0.00 | 50 | 1001.8 |
| 20260509073513 | 51 | 168 | 0.0 | 0.0 | 0.00 | 0.00 | 0.00 | 52 | 1001.8 |
| 20260509073009 | 51 | 167 | 0.0 | 0.0 | 0.00 | 0.00 | 0.00 | 53 | 1002.0 |
| 20260509072506 | 50 | 167 | 0.0 | 0.0 | 0.00 | 0.00 | 0.00 | 53 | 1002.0 |
| 20260509072003 | 50 | 163 | 0.0 | 0.0 | 0.00 | 0.00 | 0.00 | 54 | 1002.1 |
| 20260509071459 | 50 | 172 | 0.0 | 0.0 | 0.00 | 0.00 | 0.00 | 54 | 1002.1 |
| 20260509070957 | 49 | 173 | 0.0 | 0.0 | 0.00 | 0.00 | 0.00 | 56 | 1002.3 |
| 20260509070454 | 49 | 173 | 0.0 | 0.0 | 0.00 | 0.00 | 0.00 | 58 | 1002.2 |
| 20260509065949 | 48 | 173 | 0.0 | 0.0 | 0.00 | 0.00 | 0.00 | 58 | 1002.3 |
| 20260509065446 | 48 | 173 | 0.0 | 0.0 | 0.00 | 0.00 | 0.00 | 56 | 1002.2 |
| 20260509064943 | 48 | 173 | 0.0 | 0.0 | 0.00 | 0.00 | 0.00 | 56 | 1002.4 |
| 20260509064441 | 48 | 173 | 0.0 | 0.0 | 0.00 | 0.00 | 0.00 | 56 | 1002.1 |
| 20260509063939 | 48 | 173 | 0.0 | 0.0 | 0.00 | 0.00 | 0.00 | 56 | 1002.2 |
| 20260509063438 | 48 | 167 | 0.0 | 0.0 | 0.00 | 0.00 | 0.00 | 57 | 1002.4 |
| 20260509062935 | 48 | 167 | 0.0 | 0.0 | 0.00 | 0.00 | 0.00 | 56 | 1002.6 |
| 20260509062433 | 48 | 167 | 0.0 | 0.0 | 0.00 | 0.00 | 0.00 | 56 | 1002.4 |
| 20260509061930 | 48 | 167 | 0.0 | 0.0 | 0.00 | 0.00 | 0.00 | 55 | 1002.4 |
| 20260509061428 | 49 | 167 | 0.0 | 0.0 | 0.00 | 0.00 | 0.00 | 54 | 1002.5 |
| 20260509060925 | 49 | 167 | 0.0 | 0.0 | 0.00 | 0.00 | 0.00 | 53 | 1002.4 |
| 20260509060422 | 49 | 167 | 0.0 | 0.0 | 0.00 | 0.00 | 0.00 | 53 | 1002.4 |
| 20260509055917 | 50 | 167 | 0.0 | 0.0 | 0.00 | 0.00 | 0.00 | 51 | 1002.7 |
| 20260509055412 | 50 | 165 | 0.0 | 0.0 | 0.00 | 0.00 | 0.00 | 51 | 1002.6 |
| 20260509054910 | 50 | 164 | 0.0 | 0.0 | 0.00 | 0.00 | 0.00 | 50 | 1002.7 |
| 20260509054406 | 50 | 167 | 0.0 | 0.0 | 0.00 | 0.00 | 0.00 | 51 | 1002.8 |
| 20260509053905 | 50 | 167 | 0.0 | 0.0 | 0.00 | 0.00 | 0.00 | 49 | 1003.0 |
| 20260509053402 | 50 | 167 | 0.0 | 0.0 | 0.00 | 0.00 | 0.00 | 49 | 1003.0 |
| 20260509052900 | 51 | 167 | 0.0 | 0.0 | 0.00 | 0.00 | 0.00 | 48 | 1003.0 |
| 20260509052357 | 51 | 167 | 0.0 | 0.0 | 0.00 | 0.00 | 0.00 | 46 | 1003.0 |
| 20260509051855 | 52 | 168 | 0.0 | 0.0 | 0.00 | 0.00 | 0.00 | 45 | 1003.1 |
| 20260509051353 | 53 | 168 | 0.0 | 0.0 | 0.00 | 0.00 | 0.00 | 44 | 1003.2 |
| 20260509050849 | 53 | 165 | 0.0 | 0.0 | 0.00 | 0.00 | 0.00 | 43 | 1003.1 |
| 20260509050346 | 53 | 166 | 0.0 | 0.0 | 0.00 | 0.00 | 0.00 | 43 | 1003.5 |
| 20260509045843 | 53 | 165 | 0.0 | 0.0 | 0.00 | 0.00 | 0.00 | 42 | 1003.2 |
| 20260509045340 | 54 | 163 | 0.0 | 0.0 | 0.00 | 0.00 | 0.00 | 41 | 1003.3 |
| 20260509044837 | 55 | 168 | 0.0 | 0.0 | 0.00 | 0.00 | 0.00 | 39 | 1003.3 |
| 20260509044334 | 55 | 168 | 0.0 | 0.0 | 0.00 | 0.00 | 0.00 | 39 | 1003.5 |
| 20260509043831 | 56 | 168 | 0.0 | 0.0 | 0.00 | 0.00 | 0.00 | 38 | 1003.3 |
| 20260509043327 | 57 | 168 | 0.0 | 0.0 | 0.00 | 0.00 | 0.00 | 37 | 1003.3 |
| 20260509042823 | 58 | 167 | 0.0 | 0.0 | 0.00 | 0.00 | 0.00 | 36 | 1003.4 |
| 20260509042319 | 58 | 171 | 0.0 | 0.0 | 0.00 | 0.00 | 0.00 | 35 | 1003.6 |
| 20260509041816 | 58 | 303 | 1.7 | 2.6 | 0.00 | 0.00 | 0.00 | 34 | 1003.7 |
| 20260509041313 | 59 | 162 | 0.0 | 0.0 | 0.00 | 0.00 | 0.00 | 34 | 1003.7 |
| 20260509040811 | 59 | 197 | 0.0 | 0.0 | 0.00 | 0.00 | 0.00 | 35 | 1003.6 |
| 20260509040308 | 59 | 177 | 3.5 | 6.1 | 0.00 | 0.00 | 0.00 | 34 | 1003.4 |
| 20260509035805 | 59 | 178 | 0.0 | 0.0 | 0.00 | 0.00 | 0.00 | 35 | 1003.5 |
| 20260509035306 | 60 | 173 | 0.0 | 0.0 | 0.00 | 0.00 | 0.00 | 34 | 1003.4 |
| 20260509034759 | 60 | 172 | 1.7 | 1.7 | 0.00 | 0.00 | 0.00 | 34 | 1003.5 |
| 20260509034257 | 60 | 181 | 1.7 | 2.6 | 0.00 | 0.00 | 0.00 | 34 | 1003.6 |
| 20260509033753 | 60 | 151 | 1.7 | 2.6 | 0.00 | 0.00 | 0.00 | 34 | 1003.5 |
| 20260509033250 | 61 | 259 | 3.5 | 4.3 | 0.00 | 0.00 | 0.00 | 34 | 1003.6 |
| 20260509032747 | 61 | 151 | 1.7 | 2.6 | 0.00 | 0.00 | 0.00 | 34 | 1003.4 |
| 20260509032244 | 61 | 280 | 1.7 | 2.6 | 0.00 | 0.00 | 0.00 | 34 | 1003.4 |
| 20260509031742 | 61 | 123 | 0.9 | 1.7 | 0.00 | 0.00 | 0.00 | 34 | 1003.3 |
| 20260509031239 | 62 | 355 | 3.5 | 4.3 | 0.00 | 0.00 | 0.00 | 34 | 1003.3 |
| 20260509030737 | 62 | 132 | 3.5 | 4.3 | 0.00 | 0.00 | 0.00 | 34 | 1003.2 |
| 20260509030234 | 62 | 324 | 3.5 | 4.3 | 0.00 | 0.00 | 0.00 | 34 | 1003.2 |
| 20260509025731 | 62 | 82 | 3.5 | 4.3 | 0.00 | 0.00 | 0.00 | 34 | 1003.4 |
| 20260509025227 | 63 | 172 | 1.7 | 4.3 | 0.00 | 0.00 | 0.00 | 34 | 1003.0 |
| 20260509024722 | 63 | 301 | 3.5 | 4.3 | 0.00 | 0.00 | 0.00 | 33 | 1002.9 |
| 20260509024218 | 63 | 308 | 1.7 | 2.6 | 0.00 | 0.00 | 0.00 | 33 | 1002.9 |
| 20260509023716 | 64 | 288 | 3.5 | 6.1 | 0.00 | 0.00 | 0.00 | 33 | 1003.0 |
| 20260509023213 | 63 | 169 | 1.7 | 1.7 | 0.00 | 0.00 | 0.00 | 33 | 1003.0 |
| 20260509022708 | 64 | 343 | 5.2 | 7.8 | 0.00 | 0.00 | 0.00 | 33 | 1002.6 |
| 20260509022207 | 64 | 259 | 1.7 | 2.6 | 0.00 | 0.00 | 0.00 | 32 | 1002.7 |
| 20260509021703 | 64 | 249 | 1.7 | 4.3 | 0.00 | 0.00 | 0.00 | 32 | 1002.7 |
| 20260509021201 | 64 | 306 | 3.5 | 4.3 | 0.00 | 0.00 | 0.00 | 31 | 1002.6 |
| 20260509020659 | 65 | 135 | 1.7 | 2.6 | 0.00 | 0.00 | 0.00 | 31 | 1002.4 |
| 20260509020155 | 64 | 290 | 7.8 | 13.0 | 0.00 | 0.00 | 0.00 | 31 | 1002.2 |
| 20260509015654 | 65 | 181 | 0.9 | 1.7 | 0.00 | 0.00 | 0.00 | 31 | 1002.3 |
| 20260509015152 | 65 | 322 | 2.6 | 2.6 | 0.00 | 0.00 | 0.00 | 30 | 1002.1 |
| 20260509014648 | 66 | 356 | 1.7 | 2.6 | 0.00 | 0.00 | 0.00 | 30 | 1002.1 |
| 20260509014144 | 65 | 96 | 3.5 | 4.3 | 0.00 | 0.00 | 0.00 | 30 | 1002.0 |
| 20260509013641 | 66 | 163 | 1.7 | 4.3 | 0.00 | 0.00 | 0.00 | 30 | 1001.9 |
| 20260509013137 | 66 | 258 | 1.7 | 2.6 | 0.00 | 0.00 | 0.00 | 28 | 1001.8 |
| 20260509012634 | 66 | 248 | 7.0 | 12.2 | 0.00 | 0.00 | 0.00 | 28 | 1001.6 |
| 20260509012131 | 67 | 137 | 1.7 | 2.6 | 0.00 | 0.00 | 0.00 | 28 | 1001.8 |
| 20260509011629 | 67 | 69 | 2.6 | 2.6 | 0.00 | 0.00 | 0.00 | 27 | 1001.7 |
| 20260509011126 | 67 | 326 | 1.7 | 1.7 | 0.00 | 0.00 | 0.00 | 28 | 1001.6 |
| 20260509010623 | 68 | 176 | 1.7 | 2.6 | 0.00 | 0.00 | 0.00 | 27 | 1001.7 |
| 20260509010119 | 68 | 191 | 7.0 | 10.4 | 0.00 | 0.00 | 0.00 | 27 | 1001.7 |
| 20260509005618 | 68 | 155 | 0.9 | 1.7 | 0.00 | 0.00 | 0.00 | 28 | 1001.4 |
| 20260509005113 | 68 | 175 | 0.9 | 1.7 | 0.00 | 0.00 | 0.00 | 27 | 1001.4 |
| 20260509004609 | 69 | 264 | 1.7 | 4.3 | 0.00 | 0.00 | 0.00 | 26 | 1001.5 |
| 20260509004107 | 69 | 294 | 1.7 | 2.6 | 0.00 | 0.00 | 0.00 | 27 | 1001.5 |
| 20260509003605 | 69 | 205 | 1.7 | 1.7 | 0.00 | 0.00 | 0.00 | 26 | 1001.4 |
| 20260509003102 | 69 | 141 | 2.6 | 4.3 | 0.00 | 0.00 | 0.00 | 27 | 1001.3 |
| 20260509002559 | 70 | 164 | 1.7 | 2.6 | 0.00 | 0.00 | 0.00 | 26 | 1001.4 |
| 20260509002057 | 70 | 252 | 5.2 | 7.8 | 0.00 | 0.00 | 0.00 | 26 | 1001.5 |
| 20260509001554 | 70 | 176 | 2.6 | 4.3 | 0.00 | 0.00 | 0.00 | 26 | 1001.3 |
| 20260509001049 | 70 | 20 | 5.2 | 7.8 | 0.00 | 0.00 | 0.00 | 27 | 1001.6 |
| 20260509000548 | 70 | 51 | 1.7 | 1.7 | 0.00 | 0.00 | 0.00 | 27 | 1001.4 |
| 20260509000044 | 70 | 331 | 12.2 | 16.5 | 0.00 | 0.00 | 0.00 | 26 | 1001.4 |
| 20260508235542 | 70 | 161 | 1.7 | 4.3 | 0.00 | 0.00 | 0.00 | 27 | 1001.6 |
| 20260508235038 | 70 | 22 | 2.6 | 7.8 | 0.00 | 0.00 | 0.00 | 27 | 1001.4 |
| 20260508234535 | 70 | 176 | 2.6 | 4.3 | 0.00 | 0.00 | 0.00 | 27 | 1001.5 |
| 20260508234032 | 71 | 192 | 1.7 | 2.6 | 0.00 | 0.00 | 0.00 | 27 | 1001.7 |
| 20260508233532 | 71 | 209 | 2.6 | 2.6 | 0.00 | 0.00 | 0.00 | 27 | 1001.5 |
| 20260508233028 | 71 | 28 | 2.6 | 2.6 | 0.00 | 0.00 | 0.00 | 27 | 1001.3 |
| 20260508232525 | 71 | 210 | 1.7 | 1.7 | 0.00 | 0.00 | 0.00 | 28 | 1001.5 |
| 20260508232022 | 71 | 131 | 1.7 | 1.7 | 0.00 | 0.00 | 0.00 | 27 | 1001.5 |
| 20260508231520 | 71 | 161 | 3.5 | 4.3 | 0.00 | 0.00 | 0.00 | 27 | 1001.8 |
| 20260508231017 | 72 | 171 | 1.7 | 2.6 | 0.00 | 0.00 | 0.00 | 27 | 1001.4 |
| 20260508230513 | 73 | 144 | 6.1 | 10.4 | 0.00 | 0.00 | 0.00 | 26 | 1001.6 |
| 20260508230010 | 73 | 277 | 2.6 | 4.3 | 0.00 | 0.00 | 0.00 | 26 | 1001.5 |
| 20260508225508 | 73 | 177 | 0.0 | 0.0 | 0.00 | 0.00 | 0.00 | 27 | 1001.6 |
| 20260508225004 | 73 | 168 | 0.9 | 1.7 | 0.00 | 0.00 | 0.00 | 28 | 1001.5 |
| 20260508224502 | 72 | 14 | 4.3 | 7.8 | 0.00 | 0.00 | 0.00 | 26 | 1001.6 |
| 20260508223959 | 72 | 164 | 1.7 | 2.6 | 0.00 | 0.00 | 0.00 | 27 | 1001.7 |
| 20260508223457 | 72 | 188 | 0.9 | 1.7 | 0.00 | 0.00 | 0.00 | 26 | 1001.7 |
| 20260508222954 | 73 | 301 | 4.3 | 4.3 | 0.00 | 0.00 | 0.00 | 25 | 1001.5 |
| 20260508222451 | 73 | 153 | 0.9 | 1.7 | 0.00 | 0.00 | 0.00 | 27 | 1001.8 |
| 20260508221947 | 74 | 302 | 4.3 | 6.1 | 0.00 | 0.00 | 0.00 | 25 | 1001.7 |
| 20260508221443 | 74 | 170 | 0.9 | 1.7 | 0.00 | 0.00 | 0.00 | 26 | 1001.8 |
| 20260508220940 | 74 | 217 | 1.7 | 2.6 | 0.00 | 0.00 | 0.00 | 26 | 1001.8 |
| 20260508220437 | 75 | 188 | 1.7 | 1.7 | 0.00 | 0.00 | 0.00 | 26 | 1002.1 |
| 20260508215933 | 74 | 322 | 1.7 | 2.6 | 0.00 | 0.00 | 0.00 | 26 | 1001.8 |
| 20260508215430 | 73 | 165 | 0.0 | 1.7 | 0.00 | 0.00 | 0.00 | 26 | 1001.9 |
| 20260508214926 | 73 | 304 | 1.7 | 2.6 | 0.00 | 0.00 | 0.00 | 26 | 1002.0 |
| 20260508214424 | 72 | 160 | 0.0 | 0.0 | 0.00 | 0.00 | 0.00 | 29 | 1002.1 |
| 20260508213920 | 72 | 15 | 3.5 | 4.3 | 0.00 | 0.00 | 0.00 | 27 | 1002.1 |
| 20260508213418 | 72 | 156 | 1.7 | 1.7 | 0.00 | 0.00 | 0.00 | 27 | 1002.2 |
| 20260508212913 | 73 | 19 | 1.7 | 2.6 | 0.00 | 0.00 | 0.00 | 26 | 1002.1 |
| 20260508212410 | 74 | 152 | 2.6 | 2.6 | 0.00 | 0.00 | 0.00 | 26 | 1002.2 |
| 20260508211906 | 73 | 0 | 1.7 | 2.6 | 0.00 | 0.00 | 0.00 | 27 | 1002.4 |
| 20260508211401 | 71 | 256 | 1.7 | 2.6 | 0.00 | 0.00 | 0.00 | 27 | 1002.3 |
| 20260508210859 | 71 | 134 | 2.6 | 4.3 | 0.00 | 0.00 | 0.00 | 26 | 1002.4 |
| 20260508210355 | 72 | 180 | 1.7 | 2.6 | 0.00 | 0.00 | 0.00 | 26 | 1002.6 |
| 20260508205852 | 73 | 3 | 3.5 | 4.3 | 0.00 | 0.00 | 0.00 | 25 | 1002.7 |
| 20260508205349 | 74 | 154 | 2.6 | 2.6 | 0.00 | 0.00 | 0.00 | 25 | 1002.6 |
| 20260508204845 | 74 | 58 | 2.6 | 4.3 | 0.00 | 0.00 | 0.00 | 26 | 1002.6 |
| 20260508204342 | 73 | 150 | 0.0 | 1.7 | 0.00 | 0.00 | 0.00 | 26 | 1002.7 |
| 20260508203838 | 74 | 193 | 1.7 | 2.6 | 0.00 | 0.00 | 0.00 | 26 | 1003.0 |
| 20260508203334 | 73 | 321 | 7.0 | 10.4 | 0.00 | 0.00 | 0.00 | 25 | 1003.3 |
| 20260508202830 | 72 | 11 | 3.5 | 4.3 | 0.00 | 0.00 | 0.00 | 26 | 1003.0 |
| 20260508202328 | 71 | 203 | 4.3 | 6.1 | 0.00 | 0.00 | 0.00 | 27 | 1003.3 |
| 20260508201825 | 71 | 37 | 4.3 | 6.1 | 0.00 | 0.00 | 0.00 | 27 | 1003.4 |
| 20260508201322 | 71 | 184 | 1.7 | 2.6 | 0.00 | 0.00 | 0.00 | 27 | 1003.3 |
| 20260508200813 | 71 | 313 | 3.5 | 6.1 | 0.00 | 0.00 | 0.00 | 27 | 1003.5 |
| 20260508200309 | 72 | 259 | 3.5 | 7.8 | 0.00 | 0.00 | 0.00 | 27 | 1003.4 |
| 20260508195805 | 73 | 196 | 2.6 | 2.6 | 0.00 | 0.00 | 0.00 | 25 | 1003.6 |
| 20260508195305 | 71 | 255 | 1.7 | 2.6 | 0.00 | 0.00 | 0.00 | 25 | 1003.6 |
| 20260508194758 | 71 | 260 | 2.6 | 4.3 | 0.00 | 0.00 | 0.00 | 26 | 1003.8 |
| 20260508194256 | 71 | 164 | 1.7 | 2.6 | 0.00 | 0.00 | 0.00 | 25 | 1003.9 |
| 20260508193753 | 71 | 122 | 3.5 | 4.3 | 0.00 | 0.00 | 0.00 | 27 | 1003.8 |
| 20260508193249 | 70 | 358 | 5.2 | 6.1 | 0.00 | 0.00 | 0.00 | 26 | 1004.0 |
| 20260508192745 | 70 | 204 | 1.7 | 1.7 | 0.00 | 0.00 | 0.00 | 26 | 1003.8 |
| 20260508192243 | 71 | 354 | 7.0 | 8.7 | 0.00 | 0.00 | 0.00 | 24 | 1003.9 |
| 20260508191740 | 72 | 187 | 3.5 | 6.1 | 0.00 | 0.00 | 0.00 | 24 | 1004.0 |
| 20260508191237 | 71 | 14 | 4.3 | 6.1 | 0.00 | 0.00 | 0.00 | 25 | 1004.1 |
| 20260508190734 | 70 | 265 | 2.6 | 4.3 | 0.00 | 0.00 | 0.00 | 25 | 1004.3 |
| 20260508190230 | 71 | 218 | 2.6 | 2.6 | 0.00 | 0.00 | 0.00 | 25 | 1004.3 |
| 20260508185727 | 71 | 46 | 4.3 | 6.1 | 0.00 | 0.00 | 0.00 | 24 | 1004.3 |
| 20260508185225 | 72 | 356 | 3.5 | 4.3 | 0.00 | 0.00 | 0.00 | 26 | 1004.1 |
| 20260508184721 | 73 | 20 | 7.0 | 10.4 | 0.00 | 0.00 | 0.00 | 25 | 1004.3 |
| 20260508184219 | 74 | 169 | 1.7 | 2.6 | 0.00 | 0.00 | 0.00 | 26 | 1004.3 |
| 20260508183715 | 74 | 340 | 5.2 | 7.8 | 0.00 | 0.00 | 0.00 | 23 | 1004.3 |
| 20260508183212 | 73 | 348 | 1.7 | 4.3 | 0.00 | 0.00 | 0.00 | 27 | 1004.4 |
| 20260508182707 | 72 | 279 | 0.9 | 1.7 | 0.00 | 0.00 | 0.00 | 27 | 1004.5 |
| 20260508182204 | 72 | 139 | 0.9 | 2.6 | 0.00 | 0.00 | 0.00 | 26 | 1004.6 |
| 20260508181700 | 71 | 187 | 1.7 | 2.6 | 0.00 | 0.00 | 0.00 | 27 | 1004.7 |
| 20260508181157 | 71 | 166 | 1.7 | 2.6 | 0.00 | 0.00 | 0.00 | 24 | 1005.0 |
| 20260508180654 | 71 | 348 | 1.7 | 4.3 | 0.00 | 0.00 | 0.00 | 26 | 1004.8 |
| 20260508180151 | 71 | 98 | 3.5 | 6.1 | 0.00 | 0.00 | 0.00 | 25 | 1005.0 |
| 20260508175647 | 72 | 329 | 1.7 | 2.6 | 0.00 | 0.00 | 0.00 | 26 | 1005.2 |
| 20260508175144 | 71 | 232 | 1.7 | 2.6 | 0.00 | 0.00 | 0.00 | 27 | 1005.3 |
| 20260508174642 | 71 | 200 | 1.7 | 2.6 | 0.00 | 0.00 | 0.00 | 25 | 1005.4 |
| 20260508174138 | 71 | 153 | 2.6 | 4.3 | 0.00 | 0.00 | 0.00 | 26 | 1005.2 |
| 20260508173635 | 72 | 255 | 1.7 | 2.6 | 0.00 | 0.00 | 0.00 | 24 | 1005.7 |
| 20260508173131 | 71 | 171 | 0.9 | 1.7 | 0.00 | 0.00 | 0.00 | 28 | 1005.6 |
| 20260508172628 | 70 | 271 | 1.7 | 1.7 | 0.00 | 0.00 | 0.00 | 28 | 1005.8 |
| 20260508172124 | 70 | 187 | 0.9 | 1.7 | 0.00 | 0.00 | 0.00 | 29 | 1005.8 |
| 20260508171621 | 69 | 168 | 0.9 | 2.6 | 0.00 | 0.00 | 0.00 | 26 | 1005.9 |
| 20260508171118 | 69 | 175 | 1.7 | 2.6 | 0.00 | 0.00 | 0.00 | 29 | 1006.1 |
| 20260508170615 | 69 | 171 | 1.7 | 4.3 | 0.00 | 0.00 | 0.00 | 28 | 1006.2 |
| 20260508170112 | 68 | 257 | 1.7 | 2.6 | 0.00 | 0.00 | 0.00 | 28 | 1006.2 |
| 20260508165609 | 69 | 275 | 1.7 | 2.6 | 0.00 | 0.00 | 0.00 | 27 | 1006.2 |
| 20260508165106 | 68 | 143 | 1.7 | 2.6 | 0.00 | 0.00 | 0.00 | 29 | 1006.4 |
| 20260508164602 | 68 | 192 | 3.5 | 4.3 | 0.00 | 0.00 | 0.00 | 28 | 1006.4 |
| 20260508164059 | 67 | 183 | 2.6 | 4.3 | 0.00 | 0.00 | 0.00 | 30 | 1006.4 |
| 20260508163557 | 66 | 15 | 1.7 | 2.6 | 0.00 | 0.00 | 0.00 | 30 | 1006.5 |
| 20260508163053 | 66 | 322 | 9.6 | 18.2 | 0.00 | 0.00 | 0.00 | 29 | 1006.7 |
| 20260508162550 | 66 | 183 | 1.7 | 1.7 | 0.00 | 0.00 | 0.00 | 32 | 1006.6 |
| 20260508162048 | 65 | 178 | 0.9 | 1.7 | 0.00 | 0.00 | 0.00 | 32 | 1006.7 |
| 20260508161544 | 64 | 143 | 0.9 | 1.7 | 0.00 | 0.00 | 0.00 | 35 | 1006.8 |
| 20260508161042 | 64 | 172 | 1.7 | 2.6 | 0.00 | 0.00 | 0.00 | 34 | 1006.8 |
| 20260508160540 | 63 | 106 | 2.6 | 4.3 | 0.00 | 0.00 | 0.00 | 33 | 1007.0 |
| 20260508160037 | 62 | 33 | 3.5 | 7.8 | 0.00 | 0.00 | 0.00 | 34 | 1006.9 |
| 20260508155534 | 62 | 130 | 3.5 | 4.3 | 0.00 | 0.00 | 0.00 | 34 | 1007.1 |
| 20260508155031 | 62 | 194 | 3.5 | 4.3 | 0.00 | 0.00 | 0.00 | 35 | 1006.8 |
| 20260508154528 | 61 | 173 | 0.9 | 1.7 | 0.00 | 0.00 | 0.00 | 35 | 1007.1 |
| 20260508154025 | 61 | 184 | 3.5 | 4.3 | 0.00 | 0.00 | 0.00 | 35 | 1007.1 |
| 20260508153522 | 60 | 160 | 1.7 | 1.7 | 0.00 | 0.00 | 0.00 | 37 | 1007.3 |
| 20260508153018 | 59 | 160 | 0.0 | 1.7 | 0.00 | 0.00 | 0.00 | 38 | 1007.3 |
| 20260508152515 | 59 | 163 | 1.7 | 2.6 | 0.00 | 0.00 | 0.00 | 36 | 1007.3 |
| 20260508152010 | 60 | 181 | 3.5 | 7.8 | 0.00 | 0.00 | 0.00 | 36 | 1007.6 |
| 20260508151508 | 59 | 205 | 1.7 | 2.6 | 0.00 | 0.00 | 0.00 | 37 | 1007.3 |
| 20260508151004 | 59 | 219 | 1.7 | 2.6 | 0.00 | 0.00 | 0.00 | 37 | 1007.3 |
| 20260508150501 | 59 | 301 | 4.3 | 7.8 | 0.00 | 0.00 | 0.00 | 37 | 1007.5 |
| 20260508145956 | 60 | 183 | 2.6 | 2.6 | 0.00 | 0.00 | 0.00 | 36 | 1007.5 |
| 20260508145453 | 61 | 209 | 5.2 | 7.8 | 0.00 | 0.00 | 0.00 | 35 | 1007.6 |
| 20260508144950 | 60 | 201 | 1.7 | 1.7 | 0.00 | 0.00 | 0.00 | 37 | 1007.6 |
| 20260508144447 | 59 | 161 | 0.9 | 1.7 | 0.00 | 0.00 | 0.00 | 39 | 1007.4 |
| 20260508143945 | 58 | 160 | 1.7 | 2.6 | 0.00 | 0.00 | 0.00 | 39 | 1007.6 |
| 20260508143442 | 56 | 187 | 0.9 | 1.7 | 0.00 | 0.00 | 0.00 | 42 | 1007.7 |
| 20260508142938 | 56 | 291 | 1.7 | 2.6 | 0.00 | 0.00 | 0.00 | 40 | 1007.6 |
| 20260508142436 | 56 | 198 | 0.9 | 1.7 | 0.00 | 0.00 | 0.00 | 41 | 1007.7 |
| 20260508141932 | 56 | 205 | 0.0 | 1.7 | 0.00 | 0.00 | 0.00 | 41 | 1007.6 |
| 20260508141429 | 56 | 156 | 1.7 | 2.6 | 0.00 | 0.00 | 0.00 | 38 | 1007.7 |
| 20260508140927 | 55 | 176 | 1.7 | 1.7 | 0.00 | 0.00 | 0.00 | 39 | 1007.8 |
| 20260508140423 | 55 | 170 | 0.0 | 1.7 | 0.00 | 0.00 | 0.00 | 42 | 1007.6 |
| 20260508135919 | 55 | 117 | 0.9 | 2.6 | 0.00 | 0.00 | 0.00 | 40 | 1007.8 |
| 20260508135416 | 54 | 169 | 0.0 | 0.0 | 0.00 | 0.00 | 0.00 | 41 | 1008.0 |
| 20260508134912 | 54 | 209 | 1.7 | 6.1 | 0.00 | 0.00 | 0.00 | 40 | 1007.7 |
| 20260508134408 | 54 | 162 | 1.7 | 2.6 | 0.00 | 0.00 | 0.00 | 40 | 1007.8 |
| 20260508133906 | 54 | 153 | 4.3 | 7.8 | 0.00 | 0.00 | 0.00 | 40 | 1008.0 |
| 20260508133403 | 54 | 127 | 1.7 | 2.6 | 0.00 | 0.00 | 0.00 | 40 | 1008.1 |
| 20260508132900 | 54 | 177 | 0.0 | 1.7 | 0.00 | 0.00 | 0.00 | 40 | 1008.0 |
| 20260508132358 | 53 | 181 | 0.9 | 1.7 | 0.00 | 0.00 | 0.00 | 41 | 1008.1 |
| 20260508131854 | 53 | 161 | 0.0 | 0.0 | 0.00 | 0.00 | 0.00 | 42 | 1008.1 |
| 20260508131350 | 51 | 180 | 3.5 | 6.1 | 0.00 | 0.00 | 0.00 | 41 | 1007.9 |
| 20260508130847 | 51 | 191 | 1.7 | 4.3 | 0.00 | 0.00 | 0.00 | 42 | 1007.9 |
| 20260508130343 | 50 | 178 | 1.7 | 2.6 | 0.00 | 0.00 | 0.00 | 43 | 1008.0 |
| 20260508125840 | 50 | 179 | 0.9 | 1.7 | 0.00 | 0.00 | 0.00 | 44 | 1008.1 |
| 20260508125336 | 49 | 191 | 1.7 | 4.3 | 0.00 | 0.00 | 0.00 | 44 | 1008.0 |
| 20260508124834 | 48 | 166 | 0.0 | 0.0 | 0.00 | 0.00 | 0.00 | 45 | 1008.4 |
| 20260508124331 | 48 | 186 | 0.9 | 1.7 | 0.00 | 0.00 | 0.00 | 47 | 1008.1 |